| time (UTC) | temp F | wind direction | speed MPH | gust MPH | rain 1hr in | rain 24hr in | rain mn in | humidity % | barometer mb |
| 20260507124510 | 45 | 70 | 0.0 | 3.0 | 0.00 | 0.00 | 0.00 | 96 | 988.4 |
| 20260507123009 | 45 | 84 | 0.0 | 0.0 | 0.00 | 0.00 | 0.00 | 96 | 988.7 |
| 20260507121507 | 45 | 80 | 0.0 | 0.0 | 0.00 | 0.00 | 0.00 | 96 | 988.8 |
| 20260507120007 | 45 | 83 | 0.0 | 0.0 | 0.00 | 0.00 | 0.00 | 96 | 988.8 |
| 20260507114509 | 45 | 69 | 0.0 | 0.0 | 0.00 | 0.00 | 0.00 | 96 | 988.8 |
| 20260507113013 | 45 | 69 | 0.0 | 0.0 | 0.00 | 0.00 | 0.00 | 96 | 988.8 |
| 20260507111506 | 45 | 64 | 0.0 | 1.0 | 0.00 | 0.00 | 0.00 | 96 | 988.9 |
| 20260507110005 | 45 | 231 | 0.0 | 1.0 | 0.00 | 0.00 | 0.00 | 96 | 989.0 |
| 20260507104604 | 45 | 210 | 0.0 | 1.0 | 0.00 | 0.00 | 0.00 | 96 | 989.1 |
| 20260507103003 | 45 | 114 | 0.0 | 0.0 | 0.00 | 0.00 | 0.00 | 96 | 989.2 |
| 20260507101509 | 45 | 112 | 0.0 | 0.0 | 0.00 | 0.00 | 0.00 | 96 | 989.2 |
| 20260507100006 | 45 | 113 | 0.0 | 0.0 | 0.00 | 0.00 | 0.00 | 96 | 989.2 |
| 20260507094502 | 45 | 112 | 0.0 | 0.0 | 0.00 | 0.00 | 0.00 | 96 | 989.3 |
| 20260507093101 | 45 | 112 | 0.0 | 0.0 | 0.00 | 0.00 | 0.00 | 95 | 989.0 |
| 20260507091600 | 45 | 112 | 0.0 | 0.0 | 0.00 | 0.00 | 0.00 | 95 | 988.9 |
| 20260507084602 | 45 | 112 | 0.0 | 2.0 | 0.00 | 0.00 | 0.00 | 95 | 988.8 |
| 20260507083059 | 45 | 139 | 0.0 | 0.0 | 0.00 | 0.00 | 0.00 | 95 | 988.5 |
| 20260507081557 | 45 | 140 | 0.0 | 1.0 | 0.00 | 0.00 | 0.00 | 95 | 988.6 |
| 20260507080118 | 45 | 149 | 0.0 | 0.0 | 0.00 | 0.00 | 0.00 | 95 | 988.6 |
| 20260507074558 | 45 | 148 | 0.0 | 0.0 | 0.00 | 0.00 | 0.00 | 95 | 988.6 |
| 20260507073105 | 45 | 146 | 0.0 | 0.0 | 0.00 | 0.00 | 0.00 | 95 | 988.3 |
| 20260507071554 | 45 | 210 | 0.0 | 0.0 | 0.00 | 0.00 | 0.00 | 94 | 988.4 |
| 20260507070054 | 45 | 210 | 0.0 | 1.0 | 0.00 | 0.00 | 0.00 | 94 | 988.2 |
| 20260507064557 | 45 | 208 | 0.0 | 1.0 | 0.00 | 0.00 | 0.00 | 94 | 988.3 |
| 20260507063059 | 45 | 242 | 0.0 | 2.0 | 0.00 | 0.00 | 0.00 | 94 | 988.4 |
| 20260507061552 | 45 | 232 | 0.0 | 2.0 | 0.00 | 0.00 | 0.00 | 94 | 988.3 |
| 20260507060051 | 45 | 245 | 1.0 | 4.0 | 0.00 | 0.00 | 0.00 | 93 | 988.3 |
| 20260507054551 | 45 | 254 | 1.0 | 5.0 | 0.00 | 0.00 | 0.00 | 93 | 988.2 |
| 20260507053050 | 45 | 251 | 2.0 | 5.0 | 0.00 | 0.00 | 0.00 | 93 | 988.2 |
| 20260507051549 | 44 | 261 | 0.0 | 3.0 | 0.00 | 0.00 | 0.00 | 93 | 988.1 |
| 20260507050049 | 44 | 226 | 0.0 | 3.0 | 0.00 | 0.00 | 0.00 | 93 | 988.0 |
| 20260507044549 | 44 | 240 | 0.0 | 3.0 | 0.00 | 0.00 | 0.00 | 93 | 988.0 |
| 20260507043048 | 44 | 250 | 1.0 | 7.0 | 0.00 | 0.00 | 0.00 | 93 | 988.3 |
| 20260507041551 | 43 | 242 | 1.0 | 5.0 | 0.00 | 0.00 | 0.00 | 94 | 988.4 |
| 20260507040053 | 43 | 306 | 0.0 | 5.0 | 0.00 | 0.00 | 0.00 | 93 | 988.3 |
| 20260507034549 | 42 | 192 | 2.0 | 5.0 | 0.00 | 0.00 | 0.00 | 93 | 988.1 |
| 20260507033050 | 42 | 183 | 0.0 | 1.0 | 0.00 | 0.00 | 0.00 | 92 | 988.1 |
| 20260507031544 | 42 | 119 | 0.0 | 1.0 | 0.00 | 0.00 | 0.00 | 92 | 988.1 |
| 20260507030044 | 42 | 196 | 0.0 | 7.0 | 0.00 | 0.00 | 0.00 | 92 | 988.3 |
| 20260507024546 | 42 | 176 | 0.0 | 8.0 | 0.00 | 0.00 | 0.00 | 92 | 988.2 |
| 20260507023049 | 41 | 228 | 2.0 | 10.0 | 0.00 | 0.00 | 0.00 | 92 | 988.4 |
| 20260507021545 | 41 | 318 | 4.0 | 12.0 | 0.00 | 0.00 | 0.00 | 92 | 988.6 |
| 20260507020104 | 41 | 245 | 0.0 | 3.0 | 0.00 | 0.00 | 0.00 | 93 | 988.8 |
| 20260507014541 | 40 | 261 | 0.0 | 7.0 | 0.00 | 0.00 | 0.00 | 93 | 988.7 |
| 20260507013050 | 40 | 237 | 2.0 | 9.0 | 0.00 | 0.00 | 0.00 | 92 | 988.9 |
| 20260507011539 | 40 | 332 | 2.0 | 5.0 | 0.00 | 0.00 | 0.00 | 93 | 989.0 |
| 20260507010037 | 40 | 121 | 0.0 | 1.0 | 0.00 | 0.00 | 0.00 | 93 | 988.9 |
| 20260507004547 | 39 | 174 | 0.0 | 4.0 | 0.00 | 0.00 | 0.00 | 93 | 988.8 |
| 20260507003042 | 39 | 152 | 0.0 | 5.0 | 0.00 | 0.00 | 0.00 | 92 | 988.8 |
| 20260507001543 | 38 | 198 | 1.0 | 4.0 | 0.00 | 0.00 | 0.00 | 93 | 988.7 |
| 20260507000035 | 38 | 214 | 1.0 | 12.0 | 0.00 | 0.00 | 0.00 | 92 | 988.6 |
| 20260506234537 | 38 | 274 | 0.0 | 11.0 | 0.00 | 0.00 | 0.00 | 92 | 988.5 |
| 20260506233032 | 39 | 227 | 1.0 | 5.0 | 0.00 | 0.00 | 0.00 | 91 | 988.6 |
| 20260506231530 | 40 | 221 | 1.0 | 7.0 | 0.00 | 0.00 | 0.00 | 93 | 987.8 |
| 20260506230029 | 38 | 252 | 3.0 | 11.0 | 0.00 | 0.00 | 0.00 | 92 | 988.0 |
| 20260506224527 | 38 | 294 | 2.0 | 11.0 | 0.00 | 0.00 | 0.00 | 92 | 988.0 |
| 20260506223031 | 38 | 229 | 8.0 | 15.0 | 0.00 | 0.00 | 0.00 | 93 | 987.7 |
| 20260506221522 | 38 | 293 | 1.0 | 8.0 | 0.00 | 0.00 | 0.00 | 93 | 987.0 |
| 20260506220020 | 38 | 238 | 3.0 | 8.0 | 0.00 | 0.00 | 0.00 | 93 | 986.9 |
| 20260506214531 | 37 | 257 | 3.0 | 9.0 | 0.00 | 0.00 | 0.00 | 93 | 986.8 |
| 20260506213019 | 37 | 264 | 2.0 | 8.0 | 0.00 | 0.00 | 0.00 | 93 | 986.4 |
| 20260506211514 | 37 | 295 | 5.0 | 11.0 | 0.00 | 0.00 | 0.00 | 93 | 986.4 |
| 20260506210019 | 37 | 296 | 1.0 | 6.0 | 0.00 | 0.00 | 0.00 | 93 | 986.2 |
| 20260506204511 | 37 | 261 | 0.0 | 1.0 | 0.00 | 0.00 | 0.00 | 93 | 985.9 |
| 20260506203010 | 37 | 319 | 0.0 | 1.0 | 0.00 | 0.00 | 0.00 | 92 | 985.8 |
| 20260506201509 | 37 | 266 | 0.0 | 4.0 | 0.00 | 0.00 | 0.00 | 92 | 985.7 |
| 20260506200006 | 37 | 263 | 0.0 | 2.0 | 0.00 | 0.00 | 0.00 | 91 | 985.6 |
| 20260506194505 | 38 | 229 | 0.0 | 6.0 | 0.00 | 0.00 | 0.00 | 90 | 985.7 |
| 20260506193002 | 39 | 215 | 1.0 | 17.0 | 0.00 | 0.00 | 0.00 | 88 | 985.9 |
| 20260506191557 | 40 | 228 | 2.0 | 9.0 | 0.00 | 0.00 | 0.00 | 85 | 985.6 |
| 20260506190056 | 41 | 257 | 0.0 | 14.0 | 0.00 | 0.00 | 0.00 | 85 | 985.2 |
| 20260506184555 | 41 | 278 | 0.0 | 6.0 | 0.00 | 0.00 | 0.00 | 84 | 985.0 |
| 20260506183057 | 41 | 219 | 1.0 | 10.0 | 0.00 | 0.00 | 0.00 | 84 | 984.7 |
| 20260506181615 | 41 | 279 | 1.0 | 10.0 | 0.00 | 0.00 | 0.00 | 84 | 984.5 |
| 20260506180047 | 41 | 309 | 1.0 | 7.0 | 0.00 | 0.00 | 0.00 | 85 | 984.5 |
| 20260506174546 | 40 | 288 | 1.0 | 5.0 | 0.00 | 0.00 | 0.00 | 86 | 984.7 |
| 20260506173056 | 40 | 240 | 1.0 | 5.0 | 0.00 | 0.00 | 0.00 | 85 | 984.7 |
| 20260506171542 | 41 | 254 | 0.0 | 3.0 | 0.00 | 0.00 | 0.00 | 84 | 984.8 |
| 20260506170042 | 41 | 302 | 3.0 | 9.0 | 0.00 | 0.00 | 0.00 | 83 | 984.7 |
| 20260506164540 | 42 | 225 | 2.0 | 8.0 | 0.00 | 0.00 | 0.00 | 82 | 984.8 |
| 20260506163039 | 42 | 250 | 3.0 | 11.0 | 0.00 | 0.00 | 0.00 | 82 | 984.8 |
| 20260506161536 | 42 | 248 | 0.0 | 14.0 | 0.00 | 0.00 | 0.00 | 82 | 984.7 |
| 20260506160034 | 42 | 253 | 1.0 | 9.0 | 0.00 | 0.00 | 0.00 | 82 | 984.7 |
| 20260506154532 | 42 | 248 | 0.0 | 5.0 | 0.00 | 0.00 | 0.00 | 82 | 984.6 |
| 20260506153030 | 43 | 260 | 2.0 | 11.0 | 0.00 | 0.00 | 0.00 | 81 | 984.6 |
| 20260506151528 | 43 | 287 | 3.0 | 14.0 | 0.00 | 0.00 | 0.00 | 80 | 984.7 |
| 20260506150029 | 43 | 286 | 6.0 | 14.0 | 0.00 | 0.00 | 0.00 | 80 | 984.7 |
| 20260506144525 | 44 | 273 | 3.0 | 15.0 | 0.00 | 0.00 | 0.00 | 79 | 984.7 |
| 20260506143023 | 44 | 318 | 6.0 | 15.0 | 0.00 | 0.00 | 0.00 | 79 | 984.6 |
| 20260506141518 | 45 | 207 | 4.0 | 17.0 | 0.00 | 0.00 | 0.00 | 80 | 984.6 |
| 20260506140017 | 46 | 258 | 3.0 | 19.0 | 0.00 | 0.00 | 0.00 | 83 | 984.5 |
| 20260506134513 | 45 | 206 | 2.0 | 10.0 | 0.00 | 0.00 | 0.00 | 88 | 984.4 |
| 20260506133012 | 45 | 258 | 5.0 | 11.0 | 0.00 | 0.00 | 0.00 | 91 | 984.3 |
| 20260506131514 | 45 | 292 | 1.0 | 6.0 | 0.00 | 0.00 | 0.00 | 92 | 984.3 |
| 20260506130011 | 45 | 264 | 2.0 | 7.0 | 0.00 | 0.00 | 0.00 | 92 | 984.5 |